Terug naar catalogus

SL-16 DEB

ActiefLEO
NORAD 22615·DEBRIS·🇷🇺 Russia

Gelanceerd Mar 26, 1993 vanaf Baikonur Cosmodrome

Loading…

Volgende Passages (komende 24 uur)

TLE

VersSource: Space-Track

Epoch: Sep 13, 2026, 09:09 UTC

1 22615U 93016Z   26256.38133220  .00000577  00000-0  43373-3 0  9990
2 22615  70.9994 251.2738 0132537 349.8800 132.3335 13.94480009693867

Volg SL-16 DEB in realtime met AllMySat

Download on the App Store